DECAYED

STARLINK-1659, 46534 (Decayed)

Orbit data source: Space-Track

STARLINK-1659, 46534 was a payload satellite owned by SpaceX/Seattle (US) in LEO that was launched on Tue, 06 Oct 2020 UTC via an FALCON 9 launch vehicle from the Air Force Eastern Test Range (AFETR). Payload-class satellites include a variety of spacecraft equipped with specific instruments for various scientific and technological missions. These include communications satellites like Starlink; space stations such as the ISS; scientific satellites like the Hubble; Earth observation satellites from companies like Planet Labs, Umbra, and HawkEye 360; GPS; miniature CubeSats for education and research; and military/defense satellites.

Not visible in the next 10 days
Identifier
46534, 2020-070C
Orbit
Decayed
Country
Flag of USUS
Related business
Manufacturer
SpaceX/Seattle
Mission
Decayed Commercial Communications
Bus & Motor
STARLINK, Unknown motor
Mass
260 kg wet, ~248 kg dry
Launch date (UTC)
2020-10-06 (6 years ago)
Launch vehicle
FALCON 9
Launch site
Air Force Eastern Test Range (AFETR)
Object type
Payload
Rocket body
Debris
Shape & HBR
Box + 1 Pan, 10.1 m
Radar Cross Section
13.562 m², Large (>1 m²)

Expand to show TLE details & history
Last TLE update: 1 year ago

TLE from 1 year ago
0 STARLINK-1659
1 46534U 20070C   25126.31220538  .16864381  12525-4  55487-3 0  9999
2 46534  53.0220  54.9810 0003797 301.2394 199.3914 16.44653094254055
Epoch: 2025-05-06T07:29Z
TLE epoch observation values (Epoch: 2025-05-06T07:29:34.544Z)
Latitude
30.55682°
Longitude
-128.05559°
Altitude
157.57 km
Speed
7.815 km/s
True Right ascension
13h 55m 00s
True Declination
30° 23' 34"
Sunlit
Object was in full shadow at epoch
Visualization orbit readout
Latitude
Unknown
Longitude
Unknown
Altitude
Unknown
Speed
Unknown
Apparent Right ascension
Unknown
Apparent Declination
Unknown
Sunlit
N/A
Visualization observer readout
Local Sidereal Time
04:01:57
Azimuth
Unknown
Elevation
Unknown
Doppler factor
Unknown
Orbital elements
Apogee altitude
156.226 km
Perigee altitude
151.266 km
Semi-major axis
6,531.883 km
Eccentricity
0.00038
Inclination
53.022°
RAAN
54.981°
Arg. of periapsis
301.2394°
True anomaly
199.37696°
Mean anomaly
199.3914°
Eccentric anomaly
199.38418°
Mean motion
4.11136 °/min
Orbital period
87.56 mins
BSTAR
0.00055487
Loading maneuver chart data...
Computing Atmospheric mass density...

Documentation

Showing up to 5 results
|